Location: Auttagershofen
(48.1940°N, 10.0237°E)
Time: 01:17:23
(UTC+00:00)

CZ-4 R/B - Pass Details

Date: 18 January 2026
Orbit: 676 x 743 km, 98.7° (Epoch: 6 February)

Event Time Altitude Azimuth Distance (km) Brightness Sun altitude
Rises 04:51:09 0° 13° (NNE) 3,104 7.2 -21.6°
Reaches altitude 10° 04:53:24 10° 13° (NNE) 2,191 6.4 -21.2°
Maximum altitude 04:58:12 82° 287° (WNW) 731 3.7 -20.4°
Drops below altitude 10° 05:03:05 10° 200° (SSW) 2,217 6.3 -19.6°
Sets 05:05:22 0° 199° (SSW) 3,143 7.1 -19.2°
